Flag for Spain Weather past 2 weeks in Barcelona, Barcelona, Spain

Now
59 °F

Passing clouds.


Feels Like: 58 °F
Forecast: 53 / 60 °F
Wind: 8 mph from Northeast

Location: Barcelona Airport

Current Time: Mar 2, 2015 at 10:20:31 PM

Latest Report: Mar 2, 2015 at 10:00 PM


Visibility: N/A

Pressure: 30.21 "Hg

Humidity: 77%

Dew point: 52 °F

Location of BarcelonaLocation

Historic Weather in Barcelona — Graph

°F

Barcelona temperature yesterday

Maximum temperature yesterday: 61 °F (at 4:30 PM)
Minimum temperature yesterday: 48 °F (at 5:30 AM)
Average temperature yesterday: 55 °F

Past Weeks' High & Low Weather Summary

 TemperatureHumidityPressure
High72 °F (Mar 2, 3:30 PM)94% (Feb 24, 4:30 AM)30.54 "Hg (Feb 24, 4:30 AM)
Low39 °F (Feb 20, 6:30 AM)13% (Feb 22, 4:00 PM)29.59 "Hg (Feb 21, 2:30 PM)
Average52 °F65%30.06 "Hg
* Reported Feb 15 9:00 PM — Mar 2 9:00 PM, Barcelona, Weather by CustomWeather, © 2015

Note: Actual official high and low records may vary slightly from our data, if they occured in-between our weather recording intervals... More about our weather records

Advertising

Barcelona weather history for previous 24 hours

 ConditionsComfort  
Time TempWeatherWind HumidityBarometerVisibility
9:00 PM
Mon, Mar 2
59 °FPassing clouds.13 mph77%30.18 "HgN/A
8:30 PM59 °FPassing clouds.12 mph77%30.18 "HgN/A
8:00 PM61 °FPassing clouds.10 mph68%30.18 "HgN/A
7:30 PM61 °FPassing clouds.13 mph72%30.15 "HgN/A
7:00 PM61 °FPassing clouds.13 mph72%30.12 "HgN/A
6:30 PM61 °FPassing clouds.13 mph77%30.12 "HgN/A
6:00 PM61 °FPassing clouds.10 mph77%30.09 "HgN/A
5:30 PM63 °FPassing clouds.14 mph68%30.09 "HgN/A
5:00 PM64 °FPassing clouds.12 mph68%30.07 "HgN/A
4:30 PM70 °FPassing clouds.13 mph57%30.07 "HgN/A
4:00 PM68 °FPassing clouds.13 mph60%30.07 "HgN/A
3:30 PM72 °FPassing clouds.13 mph50%30.07 "HgN/A
3:00 PM70 °FPassing clouds.15 mph53%30.07 "HgN/A
2:30 PM68 °FPassing clouds.17 mph60%30.07 "HgN/A
2:00 PM68 °FPassing clouds.16 mph60%30.07 "HgN/A
1:30 PM68 °FPassing clouds.16 mph60%30.09 "HgN/A
1:00 PM68 °FPassing clouds.8 mph56%30.09 "HgN/A
12:30 PM68 °FPassing clouds.7 mph60%30.09 "HgN/A
12:00 PM66 °FPassing clouds.3 mph64%30.12 "HgN/A
11:30 AM66 °FPassing clouds.5 mph60%30.12 "HgN/A
11:00 AM66 °FPassing clouds.3 mph64%30.09 "HgN/A
10:30 AM63 °FPassing clouds.1 mph68%30.09 "HgN/A
10:00 AM61 °FPassing clouds.No wind72%30.09 "HgN/A
9:30 AM61 °FPassing clouds.5 mph72%30.09 "HgN/A
9:00 AM59 °FPassing clouds.3 mph77%30.09 "HgN/A
8:30 AM59 °FPassing clouds.2 mph72%30.07 "HgN/A
8:00 AM59 °FPassing clouds.2 mph72%30.07 "HgN/A
7:30 AM57 °FPassing clouds.1 mph77%30.07 "HgN/A
7:00 AM59 °FPassing clouds.3 mph72%30.07 "HgN/A
6:30 AM59 °FPassing clouds.1 mph72%30.07 "HgN/A
6:00 AM57 °FPassing clouds.2 mph77%30.07 "HgN/A
5:30 AM57 °FPassing clouds.1 mph77%30.07 "HgN/A
5:00 AM55 °FPassing clouds.2 mph82%30.07 "HgN/A
4:30 AM57 °FPassing clouds.5 mph77%30.07 "HgN/A
4:00 AM57 °FPassing clouds.12 mph82%30.07 "HgN/A
3:30 AM57 °FPassing clouds.8 mph82%30.07 "HgN/A
3:00 AM57 °FPassing clouds.5 mph82%30.07 "HgN/A
2:30 AM57 °FPassing clouds.9 mph82%30.07 "HgN/A
2:00 AM57 °FPassing clouds.12 mph77%30.07 "HgN/A
1:30 AM57 °FPassing clouds.9 mph77%30.09 "HgN/A
1:00 AM57 °FPassing clouds.9 mph77%30.09 "HgN/A
12:30 AM57 °FPassing clouds.14 mph82%30.09 "HgN/A
12:00 AM57 °FPassing clouds.14 mph77%30.09 "HgN/A
11:30 PM
Sun, Mar 1
59 °FPassing clouds.15 mph72%30.09 "HgN/A
11:00 PM59 °FPassing clouds.16 mph72%30.12 "HgN/A
10:30 PM59 °FPassing clouds.15 mph72%30.12 "HgN/A
10:00 PM59 °FPassing clouds.15 mph68%30.12 "HgN/A
Weather by CustomWeather, © 2015

See weather overviewHow to use our weather pages